Weather History for KPNE - November, 2013

Change the Weather History Date:

Wednesday, November 20, 2013

  Actual Average Record
Temperature  
Mean Temperature 38 °F -  
Max Temperature 46 °F 51 °F 68 °F (1999)
Min Temperature 30 °F 34 °F 21 °F (2000)
Degree Days  
Heating Degree Days 27    
Moisture  
Dew Point 16 °F    
Average Humidity 46    
Maximum Humidity 66    
Minimum Humidity 21    
Precipitation  
Precipitation 0.00 in - - ()
Sea Level Pressure  
Sea Level Pressure 30.54 in    
Wind  
Wind Speed 7 mph (NE)    
Max Wind Speed 14 mph    
Max Gust Speed -    
Visibility 10 miles    
Events      
Averages and records for this station are not official NWS values.
T = Trace of Precipitation, MM = Missing Value Source: NWS Daily Summary

Daily Weather History Graph

Daily Weather History Graph

Search for Another Location

Airport or City:

Trip Planner

Search our weather history database for the weather conditions in past years. The results will help you decide how hot, cold, wet, or windy it might be!

Date:

Astronomy

Nov. 20, 2013 Rise Set
Actual Time 6:51 AM EST 4:39 PM EST
Civil Twilight 6:21 AM EST 5:09 PM EST
Nautical Twilight 5:48 AM EST 5:42 PM EST
Astronomical Twilight 5:16 AM EST 6:14 PM EST
Moon 7:20 PM EST (11/20) 9:14 AM EST (11/20)
Length of Visible Light 10h 47m
Length of Day
9h 48m
Waning Gibbous, 91% of the Moon is Illuminated
Nov 20
Waning Gibbous
Nov 25
Last Quarter
Dec 2
New
Dec 9
First Quarter
Dec 17
Full

Hourly Weather History & Observations

Time (EST) Temp. Windchill Dew Point Humidity Pressure Visibility Wind Dir Wind Speed Gust Speed Precip Events Conditions
12:54 AM 35.1 °F 27.9 °F 21.9 °F 59% 30.39 in 10.0 mi North 9.2 mph - N/A   Clear
1:54 AM 35.1 °F 28.6 °F 21.0 °F 57% 30.40 in 10.0 mi NNE 8.1 mph - N/A   Clear
2:54 AM 32.0 °F 27.5 °F 19.9 °F 61% 30.43 in 10.0 mi North 4.6 mph - N/A   Clear
3:54 AM 32.0 °F 28.7 °F 19.9 °F 61% 30.45 in 10.0 mi NNE 3.5 mph - N/A   Clear
4:54 AM 30.0 °F 23.2 °F 19.9 °F 66% 30.47 in 10.0 mi NNE 6.9 mph - N/A   Clear
5:54 AM 30.0 °F 25.2 °F 19.9 °F 66% 30.49 in 10.0 mi North 4.6 mph - N/A   Clear
6:54 AM 30.9 °F 27.5 °F 19.9 °F 64% 30.52 in 10.0 mi North 3.5 mph - N/A   Clear
7:54 AM 34.0 °F 29.8 °F 23.0 °F 64% 30.53 in 10.0 mi NNE 4.6 mph - N/A   Clear
8:54 AM 37.9 °F 30.9 °F 21.9 °F 53% 30.56 in 10.0 mi NE 10.4 mph - N/A   Clear
9:54 AM 39.9 °F 32.9 °F 19.9 °F 45% 30.57 in 10.0 mi NE 11.5 mph - N/A   Clear
10:54 AM 43.0 °F 36.0 °F 17.1 °F 35% 30.58 in 10.0 mi ENE 13.8 mph - N/A   Clear
11:54 AM 43.0 °F 41.3 °F 16.0 °F 34% 30.57 in 10.0 mi Variable 3.5 mph - N/A   Clear
12:54 PM 46.0 °F 44.8 °F 15.1 °F 29% 30.57 in 10.0 mi NE 3.5 mph - N/A   Clear
1:54 PM 46.9 °F - 12.9 °F 25% 30.56 in 10.0 mi East 8.1 mph - N/A   Clear
2:54 PM 46.0 °F 41.0 °F 8.1 °F 21% 30.56 in 10.0 mi East 10.4 mph - N/A   Clear
3:54 PM 45.0 °F 39.7 °F 8.1 °F 22% 30.56 in 10.0 mi East 10.4 mph - N/A   Clear
4:54 PM 41.0 °F 37.1 °F 8.1 °F 26% 30.56 in 10.0 mi East 5.8 mph - N/A   Clear
5:54 PM 37.9 °F 34.4 °F 8.1 °F 29% 30.57 in 10.0 mi ENE 4.6 mph - N/A   Clear
6:54 PM 36.0 °F 31.1 °F 10.0 °F 34% 30.58 in 10.0 mi ENE 5.8 mph - N/A   Clear
7:54 PM 35.1 °F - 12.0 °F 39% 30.60 in 10.0 mi Calm Calm - N/A   Clear
8:54 PM 33.1 °F - 14.0 °F 46% 30.61 in 10.0 mi Calm Calm - N/A   Clear
9:54 PM 30.0 °F - 16.0 °F 56% 30.61 in 10.0 mi Calm Calm - N/A   Clear
10:54 PM 33.1 °F - 16.0 °F 50% 30.61 in 10.0 mi Calm Calm - N/A   Clear
11:54 PM 30.9 °F 22.8 °F 17.1 °F 57% 30.61 in 10.0 mi NE 9.2 mph - N/A   Clear